GW7003 Weather Reports


time (UTC)temp
F
wind
direction
speed
knots
gust
knots
rain 1hr
in
rain 24hr
in
rain mn
in
humidity
%
barometer
mb
20260510045117 53 111 0.0 0.0 0.00 0.01 0.01 95 1013.4
20260510044613 53 111 0.0 0.0 0.00 0.01 0.01 95 1013.2
20260510044111 53 111 0.0 0.0 0.00 0.01 0.01 94 1013.2
20260510043606 53 111 0.0 0.0 0.00 0.01 0.01 94 1013.1
20260510043103 53 112 0.0 0.0 0.00 0.01 0.01 94 1012.9
20260510042601 53 112 0.0 0.0 0.00 0.01 0.01 94 1012.9
20260510042056 53 111 0.0 0.0 0.00 0.01 0.01 93 1013.0
20260510041554 53 110 0.0 0.0 0.00 0.01 0.01 93 1012.9
20260510041051 53 110 0.0 0.0 0.00 0.01 0.01 93 1012.6
20260510040548 54 110 0.0 0.0 0.00 0.01 0.01 93 1012.7
20260510040044 54 110 0.0 0.0 0.00 0.01 0.01 92 1013.0
20260510035540 54 110 0.0 0.0 0.00 0.01 0.01 91 1012.8
20260510035040 54 110 0.0 0.0 0.00 0.01 0.01 91 1012.6
20260510034538 54 110 0.0 0.0 0.00 0.01 0.01 91 1012.6
20260510034035 54 110 0.0 0.0 0.00 0.01 0.01 91 1012.4
20260510033530 55 110 0.0 0.0 0.00 0.01 0.01 90 1012.3
20260510033029 55 110 0.0 0.0 0.00 0.01 0.01 90 1012.3
20260510032525 55 110 0.0 0.9 0.00 0.01 0.01 89 1012.0
20260510032020 55 109 0.9 0.9 0.00 0.01 0.01 89 1012.2
20260510031516 55 110 0.9 0.9 0.00 0.01 0.01 88 1012.0
20260510031012 55 183 0.0 0.0 0.00 0.01 0.01 89 1012.0
20260510030508 56 184 0.0 0.0 0.00 0.01 0.01 89 1011.8
20260510030005 56 184 0.0 0.0 0.00 0.01 0.01 89 1011.8
20260510025502 56 184 0.0 0.0 0.00 0.01 0.01 88 1011.7
20260510025000 56 184 0.0 0.0 0.00 0.01 0.01 87 1011.8
20260510024456 56 184 0.0 0.0 0.00 0.01 0.01 87 1012.0
20260510023952 57 184 0.0 0.0 0.00 0.01 0.01 87 1011.7
20260510023448 57 184 0.0 0.0 0.00 0.01 0.01 87 1011.7
20260510022945 57 184 0.0 0.0 0.00 0.01 0.01 85 1011.3
20260510022444 57 184 0.0 0.0 0.00 0.01 0.01 85 1011.3
20260510021944 58 184 0.0 0.0 0.00 0.01 0.01 84 1011.3
20260510021442 58 184 0.0 0.0 0.00 0.01 0.01 83 1011.1
20260510020939 58 184 0.0 0.0 0.00 0.01 0.01 82 1011.0
20260510020438 58 184 0.0 0.0 0.00 0.01 0.01 82 1010.8
20260510015934 58 185 0.0 0.0 0.00 0.01 0.01 82 1010.8
20260510015431 59 185 0.0 0.0 0.00 0.01 0.01 82 1010.7
20260510014926 59 185 0.0 0.0 0.00 0.01 0.01 79 1010.6
20260510014424 60 185 0.0 0.0 0.00 0.01 0.01 80 1010.7
20260510013920 60 185 0.0 0.0 0.00 0.01 0.01 78 1010.4
20260510013415 60 185 0.0 0.0 0.00 0.01 0.01 78 1010.6
20260510012910 61 185 0.0 0.0 0.00 0.01 0.01 77 1010.5
20260510012405 61 185 0.0 0.0 0.00 0.01 0.01 77 1010.4
20260510011900 61 186 0.0 0.0 0.00 0.01 0.01 72 1010.4
20260510011355 62 186 0.0 0.0 0.00 0.01 0.01 72 1010.3
20260510010852 63 186 0.0 0.0 0.00 0.01 0.01 71 1010.1
20260510010350 64 186 0.0 0.0 0.00 0.01 0.01 67 1010.1
20260510005846 64 186 0.0 0.0 0.00 0.01 0.01 67 1009.9
20260510005342 66 186 0.0 0.0 0.00 0.01 0.01 61 1009.7
20260510004840 67 186 0.0 0.0 0.00 0.01 0.01 54 1009.6
20260510004337 68 185 0.0 0.0 0.00 0.01 0.01 52 1009.7
20260510003835 69 185 0.0 0.0 0.00 0.01 0.01 50 1009.6
20260510003332 69 185 0.0 0.0 0.00 0.01 0.01 48 1009.8
20260510002830 71 185 0.0 0.0 0.00 0.01 0.01 49 1009.7
20260510002328 71 186 0.0 0.0 0.00 0.01 0.01 49 1009.7
20260510001824 71 185 0.0 0.0 0.00 0.01 0.01 48 1009.4
20260510001323 73 185 0.9 0.9 0.00 0.01 0.01 43 1009.7
20260510000818 74 185 0.0 0.0 0.00 0.01 0.01 47 1009.7
20260510000318 75 185 0.0 0.0 0.00 0.01 0.01 45 1009.6
20260509235813 75 185 0.0 0.0 0.00 0.01 0.01 41 1009.8
20260509235309 75 185 0.0 0.0 0.00 0.01 0.01 44 1009.8
20260509234805 77 185 0.0 1.7 0.00 0.01 0.01 42 1009.8
20260509234302 78 223 0.9 0.9 0.00 0.01 0.01 38 1009.7
20260509233800 79 223 0.0 0.0 0.00 0.01 0.01 39 1009.7
20260509233257 79 224 0.0 0.9 0.00 0.01 0.01 35 1009.8
20260509232753 80 221 0.9 0.9 0.00 0.01 0.01 33 1009.7
20260509232251 81 358 0.0 0.9 0.00 0.01 0.01 36 1009.6
20260509231747 81 355 0.9 0.9 0.00 0.01 0.01 38 1009.7
20260509231244 82 343 1.7 1.7 0.00 0.01 0.01 32 1009.8
20260509230742 84 344 1.7 2.6 0.00 0.01 0.01 27 1009.9
20260509230238 82 280 0.0 0.0 0.00 0.01 0.01 22 1009.9
20260509225733 83 280 0.9 1.7 0.00 0.01 0.01 26 1009.7
20260509225230 82 255 0.9 1.7 0.00 0.01 0.01 22 1009.9
20260509224725 81 179 1.7 1.7 0.00 0.01 0.01 22 1009.9
20260509224223 82 157 1.7 3.5 0.00 0.01 0.01 22 1009.8
20260509223720 81 190 1.7 2.6 0.00 0.01 0.01 22 1009.9
20260509223217 82 173 1.7 2.6 0.00 0.01 0.01 23 1009.8
20260509222714 82 140 0.0 0.9 0.00 0.01 0.01 22 1009.7
20260509222209 81 183 0.0 1.7 0.00 0.01 0.01 27 1009.7
20260509221705 81 158 0.0 2.6 0.00 0.01 0.01 29 1009.7
20260509221201 81 20 2.6 2.6 0.00 0.01 0.01 27 1009.7
20260509220657 81 110 1.7 2.6 0.00 0.01 0.01 22 1009.7
20260509220154 82 39 0.9 2.6 0.00 0.01 0.01 22 1009.7
20260509215649 82 46 0.9 3.5 0.00 0.01 0.01 24 1009.4
20260509215147 82 277 0.9 2.6 0.00 0.01 0.01 27 1009.6
20260509214643 81 18 0.0 1.7 0.00 0.01 0.01 25 1009.8
20260509214140 81 41 0.9 3.5 0.00 0.01 0.01 25 1009.8
20260509213637 81 2 3.5 5.2 0.00 0.01 0.01 23 1009.9
20260509213133 82 25 3.5 3.5 0.00 0.01 0.01 24 1009.8
20260509212631 82 115 0.0 1.7 0.00 0.01 0.01 24 1009.9
20260509212127 81 71 1.7 3.5 0.00 0.01 0.01 28 1009.9
20260509211623 81 27 2.6 3.5 0.00 0.01 0.01 26 1009.9
20260509211120 81 161 0.0 3.5 0.00 0.01 0.01 30 1010.0
20260509210617 81 83 1.7 3.5 0.00 0.01 0.01 29 1010.0
20260509210114 81 71 1.7 3.5 0.00 0.01 0.01 26 1010.1
20260509205608 81 77 0.9 2.6 0.00 0.01 0.01 30 1010.2
20260509205103 82 35 1.7 5.2 0.00 0.01 0.01 27 1010.1
20260509204559 83 258 0.9 3.5 0.00 0.01 0.01 30 1010.4
20260509204056 82 240 0.0 0.9 0.00 0.01 0.01 28 1010.4
20260509203552 82 149 0.0 0.9 0.00 0.01 0.01 25 1010.4
20260509203051 81 56 0.9 1.7 0.00 0.01 0.01 29 1010.6
20260509202550 81 160 3.5 5.2 0.00 0.01 0.01 32 1010.5
20260509202046 80 112 0.9 2.6 0.00 0.01 0.01 27 1010.6
20260509201541 81 172 3.5 3.5 0.00 0.01 0.01 33 1010.4
20260509201040 81 189 3.5 5.2 0.00 0.01 0.01 30 1010.4
20260509200539 81 242 1.7 2.6 0.00 0.01 0.01 26 1010.6
20260509200036 81 331 2.6 3.5 0.00 0.01 0.01 29 1010.7
20260509195532 81 47 2.6 6.1 0.00 0.01 0.01 26 1010.7
20260509195032 81 162 0.9 3.5 0.00 0.01 0.01 25 1010.7
20260509194526 81 167 1.7 3.5 0.00 0.01 0.01 30 1010.6
20260509194024 81 92 0.9 0.9 0.00 0.01 0.01 25 1010.6
20260509193524 81 130 2.6 5.2 0.00 0.01 0.01 28 1011.0
20260509193022 81 187 0.0 1.7 0.00 0.01 0.01 23 1010.8
20260509192518 81 227 1.7 1.7 0.00 0.01 0.01 29 1010.9
20260509192013 80 331 0.0 2.6 0.00 0.01 0.01 23 1010.9
20260509191508 80 343 1.7 3.5 0.00 0.01 0.01 26 1011.1
20260509191004 80 82 2.6 3.5 0.00 0.01 0.01 27 1010.9
20260509190501 80 137 0.9 2.6 0.00 0.01 0.01 28 1011.0
20260509185959 80 140 1.7 5.2 0.00 0.01 0.01 35 1011.2
20260509185455 80 280 1.7 2.6 0.00 0.01 0.01 31 1011.0
20260509184952 80 230 2.6 5.2 0.00 0.01 0.01 26 1011.1
20260509184450 80 91 2.6 2.6 0.00 0.01 0.01 33 1011.1
20260509183946 80 151 0.9 2.6 0.00 0.01 0.01 32 1011.1
20260509183441 79 198 0.9 1.7 0.00 0.01 0.01 29 1011.2
20260509182938 79 147 2.6 7.0 0.00 0.01 0.01 35 1011.2
20260509182434 79 135 2.6 5.2 0.00 0.01 0.01 36 1011.1
20260509181931 79 145 3.5 3.5 0.00 0.01 0.01 36 1011.2
20260509181429 78 121 1.7 1.7 0.00 0.01 0.01 31 1011.1
20260509180926 79 160 5.2 7.0 0.00 0.01 0.01 36 1011.2
20260509180421 80 160 2.6 3.5 0.00 0.01 0.01 33 1011.2
20260509175919 78 91 0.9 0.9 0.00 0.01 0.01 32 1011.3
20260509175415 79 287 3.5 5.2 0.00 0.01 0.01 33 1011.3
20260509174911 78 124 0.0 1.7 0.00 0.01 0.01 37 1011.0
20260509174408 78 104 3.5 5.2 0.00 0.01 0.01 34 1011.1
20260509173904 78 152 1.7 2.6 0.00 0.01 0.01 38 1010.9
20260509173403 78 244 3.5 3.5 0.00 0.01 0.01 31 1011.1
20260509172900 78 203 0.9 0.9 0.00 0.01 0.01 35 1011.2
20260509172357 78 164 4.3 5.2 0.00 0.01 0.01 38 1011.3
20260509171852 78 195 1.7 2.6 0.00 0.01 0.01 31 1011.4
20260509171349 78 215 0.9 0.9 0.00 0.01 0.01 43 1011.4
20260509170846 78 192 0.0 1.7 0.00 0.01 0.01 37 1011.3
20260509170342 77 145 1.7 1.7 0.00 0.01 0.01 37 1011.6
20260509165842 77 155 0.9 1.7 0.00 0.01 0.01 34 1011.5
20260509165336 76 212 0.0 1.7 0.00 0.01 0.01 44 1011.6
20260509164833 77 236 1.7 2.6 0.00 0.01 0.01 46 1011.7
20260509164329 76 198 0.0 1.7 0.00 0.01 0.01 54 1011.7
20260509163825 75 98 1.7 1.7 0.00 0.01 0.01 47 1011.5
20260509163323 76 337 2.6 5.2 0.00 0.01 0.01 48 1011.7
20260509162822 75 70 0.9 1.7 0.00 0.01 0.01 49 1011.6
20260509162320 76 217 0.9 2.6 0.00 0.01 0.01 52 1011.7
20260509161817 75 153 0.9 1.7 0.00 0.01 0.01 56 1011.7
20260509161313 75 152 1.7 1.7 0.00 0.01 0.01 60 1011.6
20260509160808 75 238 0.9 3.5 0.00 0.01 0.01 58 1011.8
20260509160305 73 168 0.9 0.9 0.00 0.01 0.01 59 1011.7
20260509155800 73 216 0.9 2.6 0.00 0.01 0.01 65 1011.7
20260509155257 73 194 0.9 1.7 0.00 0.01 0.01 65 1011.7
20260509154753 73 251 1.7 2.6 0.00 0.01 0.01 66 1011.7
20260509154250 73 138 0.9 1.7 0.00 0.01 0.01 68 1011.6
20260509153747 72 141 1.7 1.7 0.00 0.01 0.01 65 1011.6
20260509153243 71 244 0.9 2.6 0.00 0.01 0.01 66 1011.5
20260509152740 71 276 2.6 3.5 0.00 0.01 0.01 68 1011.5
20260509152236 71 250 1.7 2.6 0.00 0.01 0.01 72 1011.6
20260509151733 71 266 1.7 2.6 0.00 0.01 0.01 71 1011.7
20260509151230 70 212 1.7 1.7 0.00 0.01 0.01 69 1011.4
20260509150728 70 245 1.7 3.5 0.00 0.01 0.01 71 1011.6
20260509150226 70 251 1.7 1.7 0.00 0.01 0.01 71 1011.4
20260509145723 69 170 0.0 0.9 0.00 0.01 0.01 74 1011.5
20260509145223 68 256 0.9 1.7 0.00 0.01 0.01 75 1011.7
20260509144719 69 270 1.7 2.6 0.00 0.01 0.01 75 1011.6
20260509144216 69 314 1.7 2.6 0.00 0.01 0.01 75 1011.6
20260509143714 68 195 0.0 2.6 0.00 0.01 0.01 78 1011.7
20260509143211 67 295 0.9 2.6 0.00 0.01 0.01 78 1011.5
20260509142706 67 279 1.7 1.7 0.00 0.01 0.01 79 1011.4
20260509142203 66 216 0.0 0.9 0.00 0.01 0.01 83 1011.5
20260509141659 66 217 0.0 0.0 0.00 0.01 0.01 80 1011.6
20260509141156 64 216 0.0 0.9 0.00 0.01 0.01 83 1011.6
20260509140652 62 217 0.0 0.0 0.00 0.01 0.01 86 1011.6
20260509140150 61 217 0.9 0.9 0.00 0.01 0.01 87 1011.6
20260509135647 60 217 0.0 0.9 0.00 0.01 0.01 89 1011.8
20260509135146 60 218 0.0 1.7 0.00 0.01 0.01 89 1011.4
20260509134642 59 218 0.9 0.9 0.00 0.01 0.01 90 1011.4
20260509134139 59 222 0.9 1.7 0.00 0.01 0.01 90 1011.5
20260509133636 58 211 0.0 0.9 0.00 0.01 0.01 90 1011.6
20260509133133 57 217 1.7 1.7 0.00 0.01 0.01 89 1011.4
20260509132632 57 192 0.0 1.7 0.00 0.01 0.01 90 1011.4
20260509132130 58 207 0.9 0.9 0.00 0.01 0.01 88 1011.2
20260509131625 56 150 0.0 0.0 0.00 0.01 0.01 90 1011.1
20260509131123 56 143 0.0 0.0 0.00 0.01 0.01 91 1011.2
20260509130618 55 143 0.0 0.0 0.00 0.01 0.01 95 1011.1
20260509130115 54 143 0.0 0.0 0.00 0.01 0.01 98 1011.3
20260509125612 54 143 0.0 0.0 0.00 0.01 0.01 99 1011.3
20260509125108 52 143 0.0 0.0 0.00 0.01 0.01 99 1011.4
20260509124605 51 143 0.0 0.0 0.00 0.01 0.01 99 1011.1
20260509124102 52 144 0.0 0.0 0.00 0.01 0.01 99 1011.1
20260509123600 51 144 0.0 0.0 0.00 0.01 0.01 99 1011.0
20260509123056 50 116 0.0 0.0 0.00 0.01 0.01 99 1010.8
20260509122552 49 116 0.0 0.0 0.00 0.01 0.01 99 1011.0
20260509122050 48 116 0.0 0.0 0.00 0.01 0.01 99 1011.0
20260509121546 47 116 0.0 0.0 0.00 0.01 0.01 99 1010.7
20260509121048 47 116 0.0 0.0 0.00 0.01 0.01 99 1010.7
20260509120542 47 116 0.0 0.0 0.00 0.01 0.01 99 1010.8
20260509120040 47 116 0.0 0.0 0.00 0.01 0.01 99 1010.8
20260509115536 47 116 0.0 0.0 0.00 0.01 0.01 99 1010.8
20260509115034 47 116 0.0 0.0 0.00 0.01 0.01 99 1010.7
20260509114532 47 116 0.0 0.0 0.00 0.01 0.01 99 1010.7
20260509114031 47 116 0.0 0.0 0.00 0.01 0.01 99 1010.5
20260509113529 47 116 0.0 0.0 0.00 0.01 0.01 99 1010.7
20260509113027 47 116 0.0 0.0 0.00 0.01 0.01 99 1010.4
20260509112522 47 116 0.0 0.0 0.00 0.01 0.01 99 1010.6
20260509112019 47 116 0.0 0.0 0.00 0.01 0.01 99 1010.3
20260509111517 47 116 0.0 0.0 0.00 0.01 0.01 99 1010.3
20260509111014 47 116 0.0 0.0 0.00 0.01 0.01 99 1010.2
20260509110510 47 116 0.0 0.0 0.00 0.01 0.01 99 1010.5
20260509110008 47 116 0.0 0.0 0.00 0.01 0.01 99 1010.3
20260509105506 47 116 0.0 0.0 0.00 0.01 0.01 99 1010.5
20260509105003 47 116 0.0 0.0 0.00 0.01 0.01 99 1010.3
20260509104500 47 116 0.0 0.0 0.00 0.01 0.01 99 1010.2
20260509103957 48 116 0.0 0.0 0.00 0.01 0.01 99 1010.2
20260509103454 48 116 0.0 0.0 0.00 0.01 0.01 99 1010.1
20260509102952 48 116 0.0 0.0 0.00 0.01 0.01 99 1010.2
20260509102449 48 116 0.0 0.0 0.00 0.01 0.01 99 1010.1
20260509101946 48 116 0.0 0.0 0.00 0.01 0.01 99 1010.2
20260509101442 48 116 0.0 0.0 0.00 0.01 0.01 99 1010.1
20260509100940 48 116 0.0 0.0 0.00 0.01 0.01 99 1009.9
20260509100437 49 116 0.0 0.0 0.00 0.01 0.01 99 1010.0
20260509095933 49 117 0.0 0.0 0.00 0.01 0.01 99 1010.1
20260509095430 49 116 0.0 0.0 0.00 0.01 0.01 99 1009.9
20260509094927 49 116 0.0 0.0 0.00 0.01 0.01 99 1010.1
20260509094424 49 116 0.0 0.0 0.00 0.01 0.01 99 1010.0
20260509093922 49 116 0.0 0.0 0.00 0.01 0.01 99 1010.2
20260509093419 49 116 0.9 0.0 0.00 0.01 0.01 99 1010.4
20260509092917 49 116 0.0 0.9 0.00 0.01 0.01 99 1010.2
20260509092414 49 116 0.0 0.0 0.00 0.01 0.01 99 1010.2
20260509091913 49 116 0.0 0.0 0.00 0.01 0.01 99 1010.3
20260509091409 50 116 0.0 0.0 0.00 0.01 0.01 98 1010.3
20260509090907 50 116 0.0 0.0 0.00 0.01 0.01 99 1010.3
20260509090404 50 116 0.0 0.0 0.00 0.01 0.01 99 1010.2
20260509085901 50 116 0.0 0.0 0.00 0.01 0.01 98 1010.3
20260509085358 50 117 0.0 0.9 0.00 0.01 0.01 98 1010.4
20260509084854 50 117 0.0 0.0 0.00 0.01 0.01 98 1010.3
20260509084351 51 117 0.0 0.0 0.00 0.01 0.01 98 1010.4
20260509083849 51 117 0.0 0.9 0.00 0.01 0.01 98 1010.5
20260509083346 51 116 0.0 0.0 0.00 0.01 0.01 98 1010.6
20260509082842 51 116 0.0 0.0 0.00 0.01 0.01 98 1010.5
20260509082339 51 116 0.0 0.0 0.00 0.01 0.01 98 1010.7
20260509081837 51 115 0.9 0.9 0.00 0.01 0.01 98 1010.5
20260509081333 51 116 0.0 0.0 0.00 0.01 0.01 98 1010.7
20260509080831 51 118 0.0 0.0 0.00 0.01 0.01 98 1010.7
20260509080329 51 118 0.0 0.0 0.07 0.01 0.01 98 1010.8
20260509075827 51 116 0.9 0.9 0.07 0.01 0.01 98 1010.8
20260509075324 51 152 0.0 0.0 0.00 0.00 0.00 98 1010.7
20260509074821 51 152 0.0 0.0 0.00 0.00 0.00 98 1010.8
20260509074319 51 153 0.0 0.0 0.00 0.00 0.00 98 1010.6
20260509073815 51 152 0.0 0.0 0.00 0.00 0.00 98 1010.7
20260509073311 51 152 0.0 0.0 0.00 0.00 0.00 98 1010.8
20260509072808 51 152 0.0 0.0 0.00 0.00 0.00 98 1010.9
20260509072306 51 153 0.0 0.0 0.00 0.00 0.00 98 1010.8
20260509071801 51 153 0.0 0.0 0.00 0.00 0.00 98 1010.7
20260509071258 51 152 0.0 0.0 0.00 0.00 0.00 98 1010.7
20260509070755 51 152 0.0 0.0 0.00 0.00 0.00 98 1010.6
20260509070252 52 153 0.0 0.0 0.00 0.00 0.00 98 1010.6
20260509065748 52 153 0.0 0.0 0.00 0.00 0.00 98 1010.6
20260509065244 52 153 0.0 0.0 0.00 0.00 0.00 98 1010.4
20260509064741 52 152 0.0 0.0 0.00 0.00 0.00 98 1010.4
20260509064238 52 152 0.0 0.0 0.00 0.00 0.00 98 1010.5
20260509063736 52 154 0.0 0.0 0.00 0.00 0.00 98 1010.5
20260509063232 52 152 0.0 0.0 0.00 0.00 0.00 98 1010.6
20260509062729 53 152 0.9 0.9 0.00 0.00 0.00 98 1010.4
20260509062226 53 153 0.9 0.9 0.00 0.00 0.00 98 1010.7
20260509061723 53 153 0.0 0.0 0.00 0.00 0.00 98 1010.4
20260509061221 53 153 0.9 0.9 0.00 0.00 0.00 98 1010.7
20260509060718 53 152 0.0 0.9 0.00 0.00 0.00 97 1010.7
20260509060214 53 149 0.0 0.9 0.00 0.00 0.00 97 1010.8
20260509055710 53 166 0.0 0.0 0.00 0.00 0.00 97 1010.8
20260509055206 53 166 0.0 0.0 0.00 0.00 0.00 97 1010.7
20260509054703 53 167 0.0 0.9 0.00 0.00 0.00 97 1010.7
20260509054200 53 167 0.0 0.0 0.00 0.00 0.00 97 1010.9
20260509053659 53 148 0.0 0.0 0.00 0.00 0.00 97 1010.7
20260509053155 53 194 0.9 0.9 0.00 0.00 0.00 97 1010.9
20260509052653 53 220 0.9 0.9 0.00 0.00 0.00 97 1010.8
20260509052150 53 36 1.7 2.6 0.00 0.00 0.00 97 1010.9
20260509051648 53 107 0.9 1.7 0.00 0.00 0.00 97 1010.5
20260509051145 53 108 0.0 0.0 0.00 0.00 0.00 97 1010.5
20260509050642 54 108 0.0 0.0 0.00 0.00 0.00 97 1010.3
20260509050139 54 108 0.0 0.0 0.00 0.00 0.00 97 1010.4
20260509045636 54 108 0.0 0.0 0.00 0.12 0.12 96 1010.4